Terug naar catalogus

ONEWEB-0092

ActiefCommunicatiePO
NORAD 45437·PAYLOAD·🇬🇧 United Kingdom

Gelanceerd Mar 21, 2020 vanaf Baikonur Cosmodrome

Loading…

Volgende Passages (komende 24 uur)

TLE

VersSource: CelesTrak SupGP

Epoch: Sep 14, 2026, 21:18 UTC

1 45437C 20020P   26257.88768935 -.00002038  00000+0 -57574-2 0  2574
2 45437  87.8986   3.2313 0001938  95.5000 307.4578 13.11423477    11

Volg ONEWEB-0092 in realtime met AllMySat

Download on the App Store